This is the latest recevied weather packets stored in our database for station/object IW1CGW-13. If no packets are shown the sender has not sent any weather packets the latest 10 day(s).
| Time | Temp. | Humidity | Pressure | Rain* | Wind** | Luminosity | Snow |
|---|---|---|---|---|---|---|---|
| 1778101325 | 11.67° C | 81% | 1009.8 hPa | - | - | - | - |
| 1778100704 | 11.67° C | 82% | 1009.7 hPa | - | - | - | - |
| 1778100082 | 11.11° C | 81% | 1009.4 hPa | - | - | - | - |
| 1778099462 | 11.67° C | 81% | 1009.2 hPa | - | - | - | - |
| 1778098845 | 11.67° C | 81% | 1009.1 hPa | - | - | - | - |
| 1778098220 | 11.67° C | 81% | 1008.8 hPa | - | - | - | - |
| 1778097594 | 11.11° C | 81% | 1008.6 hPa | - | - | - | - |
| 1778096973 | 11.11° C | 81% | 1008.3 hPa | - | - | - | - |
| 1778096352 | 11.11° C | 80% | 1008.1 hPa | - | - | - | - |
| 1778095726 | 11.67° C | 79% | 1007.8 hPa | - | - | - | - |
| 1778095106 | 12.22° C | 80% | 1007.4 hPa | - | - | - | - |
| 1778094485 | 12.22° C | 80% | 1007.1 hPa | - | - | - | - |
| 1778093864 | 12.78° C | 80% | 1007 hPa | - | - | - | - |
| 1778093243 | 12.78° C | 79% | 1006.8 hPa | - | - | - | - |
| 1778092623 | 12.78° C | 80% | 1006.7 hPa | - | - | - | - |
| 1778092000 | 13.33° C | 79% | 1006.5 hPa | - | - | - | - |
| 1778091379 | 13.33° C | 79% | 1006.3 hPa | - | - | - | - |
| 1778090757 | 14.44° C | 79% | 1006.2 hPa | - | - | - | - |
| 1778090136 | 14.44° C | 79% | 1006 hPa | - | - | - | - |
| 1778089515 | 14.44° C | 79% | 1005.8 hPa | - | - | - | - |
| 1778088893 | 14.44° C | 79% | 1005.6 hPa | - | - | - | - |
| 1778088269 | 15° C | 79% | 1005.5 hPa | - | - | - | - |
| 1778087648 | 15° C | 79% | 1005.5 hPa | - | - | - | - |
| 1778087028 | 15° C | 79% | 1005.5 hPa | - | - | - | - |
| 1778086407 | 15.56° C | 79% | 1005.4 hPa | - | - | - | - |
* Rain since midnight (hover to see other rain measurements)
** Current wind speed in m/s (hover to see current wind gust speed)